Location: S�tio Afonso Gruber
(26.1760°S, 49.5250°W)
Time: 08:04:47
(UTC+00:00)

Cosmos 1844 Rocket - Pass Details

Date: 10 October 2020
Orbit: 823 x 846 km, 71.0° (Epoch: 22 October)

Event Time Altitude Azimuth Distance (km) Brightness Sun altitude
Exits shadow 07:28:28 25° 254° (WSW) 1,643 3.7 -18.2°
Maximum altitude 07:29:01 25° 245° (WSW) 1,629 3.8 -18.0°
Drops below altitude 10° 07:33:39 10° 190° (S) 2,473 5.2 -17.1°
Sets 07:36:32 0° 177° (S) 3,410 6.1 -16.4°
